星链-1294 (STARLINK-1294 )

导读 | 星芒AI

STARLINK-1294 是 SpaceX Starlink 卫星互联网项目中的一颗低轨卫星,属于第 29 批部署的 Starlink 卫星群。该卫星于 2022 年 12 月发射,运行在约 550 公里的轨道高度,旨在为全球提供高速、低延迟的宽带互联网服务。STARLINK-1294 采用先进的推进系统和激光通信技术,支持与其他 Starlink 卫星的星间链路,提升网络效率与覆盖范围。作为 Starlink 计划的一部分,它有助于扩大偏远地区的互联网接入能力。

基本信息
目录编号:
45551
目录名称:
STARLINK-1294
国际标识:
2020-025W
轨道中心:
EARTH
卫星名称:
星链-1294
卫星全名:
星链-1294 (STARLINK-1294 )
卫星状态:
在轨 (已飞行2064 天)
发射日期:
2020-04-22 UTC
国别 :
美国 (US)
星等 :
--
轨道信息
数据来源 国际轨道数据
星历时间: 2025-12-15T16:29:58+0800
18小时前
查看轨道信息
半长轴: 6740.644km
偏心率: 0.0001179
轨道倾角: 53.046°
近地点辐角 119.133°
升交点赤经 39.894°
平近点角 240.980°
近地点: 361.714km
远地点: 363.304km
周期: 91.793分钟
每日圈数: 15.687391
详细信息
固有亮度:
5
最大亮度:
2.5
卫星平台:
Starlink V1.0
覆盖范围:
全球
运营商:
太空探索技术公司
运营商所在国:
美国
制造商(研发单位):
太空探索技术公司
制造商所在国:
美国
使用方式:
暂无
卫星简介
星链(Starlink)计划是由太空探索技术公司(SpaceX)提出的一个巨型低轨卫星互联网星座项目,计划在2019年至2024年间在太空搭建由约1.2万颗卫星组成的“星链”网络,其中1584颗将部署在地球上空550千米处的近地轨道,并从2020年开始工作。该卫星仍在工作。
2D轨道图
3D轨道图
轨道高度分析图
轨道倾角分析图
轨道综合分析图
查看轨道综合分析图